Weather History for KIKV - February, 2014

Change the Weather History Date:

Wednesday, February 19, 2014

  Actual Average (KDSM) Record (KDSM)
Temperature  
Mean Temperature 39 °F 29 °F  
Max Temperature 50 °F 37 °F 70 °F (1930)
Min Temperature 28 °F 20 °F -11 °F (1936)
Degree Days  
Heating Degree Days 26 36  
Month to date heating degree days 743  
Since 1 July heating degree days 4523  
Cooling Degree Days 0 0  
Month to date cooling degree days 0  
Year to date cooling degree days 0  
Moisture  
Dew Point 31 °F    
Average Humidity 75    
Maximum Humidity 100    
Minimum Humidity 43    
Precipitation  
Precipitation 0.00 in 0.05 in 1.09 in (1888)
Month to date precipitation 0.81  
Year to date precipitation 1.81  
Snow  
Snow 0.00 in 0.20 in 4.30 in (2010)
Month to date snowfall 5.7  
Since 1 July snowfall 26.1  
Snow Depth -    
Sea Level Pressure  
Sea Level Pressure 29.86 in    
Wind  
Wind Speed 8 mph (SW)    
Max Wind Speed 15 mph    
Max Gust Speed 23 mph    
Visibility 10 miles    
Events      
T = Trace of Precipitation, MM = Missing Value Source: NWS Daily Summary

Daily Weather History Graph

Daily Weather History Graph

Search for Another Location

Airport or City:

Trip Planner

Search our weather history database for the weather conditions in past years. The results will help you decide how hot, cold, wet, or windy it might be!

Date:

Astronomy

Feb. 19, 2014 Rise Set
Actual Time 7:04 AM CST 5:52 PM CST
Civil Twilight 6:35 AM CST 6:20 PM CST
Nautical Twilight 6:03 AM CST 6:53 PM CST
Astronomical Twilight 5:31 AM CST 7:25 PM CST
Moon 10:51 PM CST (2/19) 9:06 AM CST (2/19)
Length of Visible Light 11h 45m
Length of Day
10h 48m
Waning Gibbous, 79% of the Moon is Illuminated
Feb 19
Waning Gibbous
Feb 22
Last Quarter
Mar 1
New
Mar 8
First Quarter
Mar 16
Full

Hourly Weather History & Observations

Time (CST) Temp. Windchill Dew Point Humidity Pressure Visibility Wind Dir Wind Speed Gust Speed Precip Events Conditions
12:15 AM 35.6 °F 27.5 °F 32.0 °F 87% 29.86 in 10.0 mi WNW 11.5 mph - N/A   Clear
12:35 AM 35.6 °F 27.5 °F 32.0 °F 87% 29.87 in 10.0 mi WNW 11.5 mph - N/A   Clear
12:55 AM 35.6 °F 28.0 °F 32.0 °F 87% 29.87 in 10.0 mi WNW 10.4 mph - N/A   Clear
1:15 AM 35.6 °F 27.5 °F 32.0 °F 87% 29.88 in 10.0 mi West 11.5 mph - N/A   Clear
1:35 AM 33.8 °F 25.8 °F 32.0 °F 93% 29.88 in 10.0 mi West 10.4 mph - N/A   Clear
1:55 AM 33.8 °F 25.8 °F 32.0 °F 93% 29.88 in 10.0 mi West 10.4 mph - N/A   Clear
2:15 AM 33.8 °F 25.3 °F 32.0 °F 93% 29.89 in 10.0 mi West 11.5 mph - N/A   Clear
2:35 AM 33.8 °F 27.0 °F 30.2 °F 87% 29.89 in 10.0 mi West 8.1 mph - N/A   Clear
2:55 AM 32.0 °F 24.8 °F 30.2 °F 93% 29.89 in 10.0 mi West 8.1 mph - N/A   Clear
3:15 AM 32.0 °F 25.6 °F 30.2 °F 93% 29.89 in 10.0 mi West 6.9 mph - N/A   Clear
3:35 AM 32.0 °F 24.2 °F 30.2 °F 93% 29.90 in 10.0 mi West 9.2 mph - N/A   Clear
3:55 AM 32.0 °F 23.6 °F 30.2 °F 93% 29.91 in 10.0 mi West 10.4 mph - N/A   Clear
4:15 AM 32.0 °F 24.8 °F 30.2 °F 93% 29.90 in 10.0 mi West 8.1 mph - N/A   Clear
4:35 AM 30.2 °F 22.6 °F 30.2 °F 100% 29.91 in 10.0 mi West 8.1 mph - N/A   Clear
4:55 AM 30.2 °F 23.4 °F 30.2 °F 100% 29.91 in 10.0 mi WNW 6.9 mph - N/A   Clear
5:15 AM 30.2 °F - 28.4 °F 93% 29.91 in 10.0 mi Calm Calm - N/A   Clear
5:35 AM 28.4 °F 22.2 °F 28.4 °F 100% 29.91 in 10.0 mi WNW 5.8 mph - N/A   Clear
5:55 AM 30.2 °F 22.6 °F 28.4 °F 93% 29.92 in 10.0 mi West 8.1 mph - N/A   Clear
6:15 AM 30.2 °F 22.6 °F 28.4 °F 93% 29.92 in 10.0 mi West 8.1 mph - N/A   Clear
6:35 AM 30.2 °F 26.7 °F 28.4 °F 93% 29.92 in 10.0 mi WNW 3.5 mph - N/A   Clear
6:55 AM 28.4 °F - 26.6 °F 93% 29.91 in 9.0 mi Calm Calm - N/A   Clear
7:15 AM 28.4 °F - 26.6 °F 93% 29.91 in 8.0 mi Calm Calm - N/A   Clear
7:35 AM 28.4 °F - 26.6 °F 93% 29.92 in 9.0 mi Calm Calm - N/A   Clear
7:55 AM 30.2 °F - 28.4 °F 93% 29.92 in 8.0 mi Calm Calm - N/A   Clear
8:15 AM 32.0 °F - 30.2 °F 93% 29.93 in 9.0 mi Calm Calm - N/A   Clear
8:35 AM 33.8 °F 29.6 °F 30.2 °F 87% 29.94 in 10.0 mi SW 4.6 mph - N/A   Clear
8:55 AM 35.6 °F 30.7 °F 32.0 °F 87% 29.94 in 10.0 mi WSW 5.8 mph - N/A   Clear
9:15 AM 35.6 °F 29.2 °F 32.0 °F 87% 29.94 in 10.0 mi WSW 8.1 mph - N/A   Clear
9:35 AM 37.4 °F 32.8 °F 32.0 °F 81% 29.95 in 10.0 mi WSW 5.8 mph - N/A   Clear
9:55 AM 39.2 °F 35.0 °F 32.0 °F 75% 29.95 in 10.0 mi WSW 5.8 mph - N/A   Clear
10:15 AM 41.0 °F 38.0 °F 32.0 °F 70% 29.94 in 10.0 mi West 4.6 mph - N/A   Clear
10:35 AM 41.0 °F 39.0 °F 32.0 °F 70% 29.94 in 10.0 mi WSW 3.5 mph - N/A   Clear
10:55 AM 42.8 °F 39.3 °F 32.0 °F 66% 29.94 in 10.0 mi WSW 5.8 mph - N/A   Clear
11:15 AM 44.6 °F 41.4 °F 32.0 °F 61% 29.94 in 10.0 mi West 5.8 mph - N/A   Clear
11:35 AM 44.6 °F - 30.2 °F 57% 29.93 in 10.0 mi Calm Calm - N/A   Clear
11:55 AM 46.4 °F 44.3 °F 30.2 °F 53% 29.93 in 10.0 mi Variable 4.6 mph 11.5 mph N/A   Clear
12:15 PM 48.2 °F - 28.4 °F 46% 29.92 in 10.0 mi SW 8.1 mph - N/A   Clear
12:35 PM 48.2 °F - 28.4 °F 46% 29.92 in 10.0 mi SSW 11.5 mph - N/A   Clear
12:55 PM 48.2 °F - 28.4 °F 46% 29.90 in 10.0 mi SSW 6.9 mph - N/A   Clear
1:15 PM 50.0 °F - 28.4 °F 43% 29.89 in 10.0 mi SW 9.2 mph - N/A   Clear
1:35 PM 50.0 °F - 28.4 °F 43% 29.88 in 10.0 mi SW 8.1 mph - N/A   Clear
1:55 PM 50.0 °F - 28.4 °F 43% 29.88 in 10.0 mi SSW 10.4 mph - N/A   Clear
2:15 PM 50.0 °F - 28.4 °F 43% 29.87 in 10.0 mi SSW 9.2 mph 15.0 mph N/A   Clear
2:35 PM 48.2 °F - 28.4 °F 46% 29.86 in 10.0 mi SSW 6.9 mph 15.0 mph N/A   Clear
2:55 PM 48.2 °F - 26.6 °F 43% 29.85 in 10.0 mi SSW 8.1 mph - N/A   Clear
3:15 PM 48.2 °F - 32.0 °F 54% 29.85 in 10.0 mi South 8.1 mph - N/A   Clear
3:35 PM 46.4 °F 42.9 °F 32.0 °F 57% 29.84 in 10.0 mi South 6.9 mph - N/A   Clear
3:55 PM 46.4 °F 41.9 °F 32.0 °F 57% 29.83 in 10.0 mi South 9.2 mph - N/A   Clear
4:15 PM 46.4 °F 42.4 °F 32.0 °F 57% 29.82 in 10.0 mi SSE 8.1 mph - N/A   Clear
4:35 PM 44.6 °F 40.2 °F 32.0 °F 61% 29.81 in 10.0 mi SSE 8.1 mph - N/A   Clear
4:55 PM 44.6 °F 39.7 °F 32.0 °F 61% 29.81 in 10.0 mi SSE 9.2 mph - N/A   Clear
5:15 PM 42.8 °F 38.0 °F 32.0 °F 66% 29.81 in 10.0 mi SSE 8.1 mph 15.0 mph N/A   Clear
5:30 PM 42.8 °F 37.5 °F 32.0 °F 66% 29.80 in 10.0 mi SSE 9.2 mph - N/A   Clear
6:15 PM 41.0 °F 34.7 °F 32.0 °F 70% 29.78 in 10.0 mi SE 10.4 mph - N/A   Partly Cloudy
6:55 PM 41.0 °F 35.8 °F 32.0 °F 70% 29.78 in 10.0 mi SSE 8.1 mph - N/A   Overcast
7:35 PM 41.0 °F 35.8 °F 30.2 °F 65% 29.77 in 10.0 mi SE 8.1 mph - N/A   Mostly Cloudy
7:55 PM 41.0 °F 34.7 °F 30.2 °F 65% 29.76 in 10.0 mi SE 10.4 mph - N/A   Scattered Clouds
8:55 PM 39.2 °F 31.6 °F 30.2 °F 70% 29.76 in 10.0 mi SE 12.7 mph 18.4 mph N/A   Overcast
9:55 PM 41.0 °F 33.1 °F 32.0 °F 70% 29.72 in 10.0 mi SSE 15.0 mph 21.9 mph N/A   Overcast
10:20 PM 41.0 °F 34.3 °F 32.0 °F 70% 29.72 in 10.0 mi SSE 11.5 mph 18.4 mph N/A   Overcast
10:35 PM 39.2 °F 30.8 °F 33.8 °F 81% 29.71 in 10.0 mi SSE 15.0 mph - N/A   Overcast
10:55 PM 39.2 °F 32.0 °F 33.8 °F 81% 29.69 in 10.0 mi SE 11.5 mph 17.3 mph N/A   Overcast
11:15 PM 39.2 °F 35.9 °F 33.8 °F 81% 29.69 in 10.0 mi Variable 4.6 mph 16.1 mph N/A   Overcast
11:35 PM 39.2 °F 31.2 °F 35.6 °F 87% 29.68 in 10.0 mi SSE 13.8 mph - N/A   Overcast
11:55 PM 39.2 °F 30.8 °F 35.6 °F 87% 29.67 in 7.0 mi South 15.0 mph 23.0 mph N/A   Overcast